GRBBeta
1 60237U 24128C   26260.38832984  .00002688  00000-0  19061-3 0  9990
2 60237  61.9884 252.6364 0027124 154.9814 205.2600 15.07185597120165
Curium One
1 60242U 24128H   26260.49060607  .00005978  00000-0  34043-3 0  9995
2 60242  61.9774 238.5523 0026277 149.7196 210.5426 15.13651402120426
ROBUSTA-3A
1 60243U 24128J   26260.37687520  .00004469  00000-0  26410-3 0  9995
2 60243  61.9851 241.9518 0028313 146.3900 213.8999 15.12735120120367
CatSat
1 60246U 24125J   26260.09787309  .00109198  00000-0  82090-3 0  9991
2 60246  97.1951 114.5867 0015222 189.3494 170.7489 15.72079296121765
AO-123
1 61781U 24199AY  26260.46055707  .00006758  00000-0  18925-3 0  9992
2 61781  97.2841 128.3048 0012814 345.1348  14.9518 15.36877038148094
LASARsat
1 62391U 24247Q   26259.92618275  .00038564  00000-0  62382-3 0  9994
2 62391  44.9712 104.4860 0009459 214.7674 145.2600 15.52187404 97541
CroCube
1 62394U 24247T   26258.94955211  .00044933  00000-0  65387-3 0  9997
2 62394  44.9692 105.5148 0010096 218.5695 141.4478 15.55031035 97447
JINJUSat 1B
1 63210U 25052A   26260.26669250  .00014673  00000-0  41844-3 0  9993
2 63210  97.3860 157.2569 0005151 104.1679 256.0137 15.36148604 84220
NUSHSAT 1
1 63211U 25052B   26260.46593690  .00019207  00000-0  49275-3 0  9994
2 63211  97.3833 158.3888 0004916 105.4737 254.7052 15.39371603 84326
TEVEL2-4
1 63213U 25052D   26259.18461306  .00020084  00000-0  54584-3 0  9995
2 63213  97.3753 155.8571 0004256 116.4630 243.7051 15.37585813 84089
TEVEL2-5
1 63214U 25052E   26260.45348289  .00016470  00000-0  45093-3 0  9991
2 63214  97.3756 157.0501 0004174 116.2230 243.9444 15.37399831 84275
TEVEL2-6
1 63215U 25052F   26260.46785915  .00016597  00000-0  45482-3 0  9996
2 63215  97.3755 157.0497 0004143 116.1285 244.0386 15.37370140 84273
TEVEL2-1
1 63217U 25052H   26260.46714055  .00015941  00000-0  44616-3 0  9995
2 63217  97.3730 156.5552 0004058 125.5480 234.6143 15.36721436 84251
TEVEL2-3
1 63218U 25052J   26260.19732594  .00016145  00000-0  45083-3 0  9990
2 63218  97.3734 156.3209 0003773 124.6859 235.4741 15.36790347 84212
TEVEL2-2
1 63219U 25052K   26260.20627078  .00015664  00000-0  43839-3 0  9995
2 63219  97.3730 156.2981 0004038 126.6088 233.5528 15.36727228 84216
TEVEL2-9
1 63237U 25052AD  26260.50515376  .00013808  00000-0  41498-3 0  9992
2 63237  97.3791 155.7564 0006483 153.2555 206.9024 15.34504276 84179
TEVEL2-7
1 63238U 25052AE  26260.23975051  .00013319  00000-0  40513-3 0  9997
2 63238  97.3790 155.3635 0006363 155.4846 204.6700 15.34130732 84121
TEVEL2-8
1 63239U 25052AF  26260.44444787  .00013760  00000-0  41851-3 0  9994
2 63239  97.3793 155.5427 0006479 153.9896 206.1674 15.34126487 84154
SPIRONE
1 66657U 25274H   26260.23082169  .00001709  00000-0  16604-3 0  9994
2 66657  97.7482 188.2226 0013589  70.1923 290.0761 14.93851597 43965
K-HERO
1 66660U 25274L   26259.27304096  .00001801  00000-0  17292-3 0  9993
2 66660  97.7489 187.5049 0015435  76.7109 283.5831 14.94241993 43836
SNUGLITE-III DURI
1 66661U 25274M   26260.26391794  .00001206  00000-0  11753-3 0  9991
2 66661  97.7485 188.5030 0016017  74.6627 285.6362 14.94250939 43981
SAKHACUBE-CHOLBON
1 67290U 25313AU  26260.18079678  .00007594  00000-0  29459-3 0  9997
2 67290  97.3854 334.1233 0009670  39.9446 320.2503 15.26355987 40008
RS95S (QMR-KWT-2)
1 67291U 25313AV  26260.19483568  .00011063  00000-0  40156-3 0  9999
2 67291  97.3845 334.5509 0008973  37.8321 322.3548 15.28447913 40031
Ten-Koh2
1 68261U 25241B   26260.32107524  .00004817  00000-0  20431-3 0  9990
2 68261  51.6587 240.7843 0008223  90.5014 269.6907 15.24893450 28964
JACK-002
1 68417U 26067B   26260.33155057  .00005213  00000-0  24252-3 0  9991
2 68417  97.4670 217.8963 0001594  23.0627 337.0679 15.20383810 25942
DISCO 2
1 68431U 26067R   26260.10163392  .00008220  00000-0  38138-3 0  9992
2 68431  97.4703 217.6697 0003737  61.4990 298.6621 15.20292838 25901
HADES-SA (SpinnyONE)
1 68446U 26067AG  26260.35459282  .00016011  00000-0  70445-3 0  9995
2 68446  97.4495 217.5041 0008886 107.1504 253.0706 15.21911793 25937
PARUS-6U1
1 68456U 26067AS  26259.15889145  .00005547  00000-0  27328-3 0  9991
2 68456  97.4658 216.2233 0007385 103.1811 257.0248 15.18339329 25736
SAL-E
1 68458U 26067AU  26260.31597518  .00006343  00000-0  30693-3 0  9997
2 68458  97.4580 217.2657 0007680 106.8350 253.3727 15.18908806 25912
FSI-SAT 2
1 68792U 26088A   26260.37153833  .00003942  00000-0  26351-3 0  9993
2 68792  97.5195  47.4299 0014871 148.4245 211.7878 15.07453230 22170
OrigamiSat 2
1 68795U 26088D   26260.55868332  .00010798  00000-0  65546-3 0  9999
2 68795  97.5190  48.0955 0015463 120.1962 240.0802 15.10587833 22235
ARICA 2
1 68796U 26088E   26260.15014470  .00003922  00000-0  25090-3 0  9993
2 68796  97.5197  47.5529 0016687 120.9379 239.3492 15.09056343 22166
WASEDA-SAT-ZERO-II
1 68797U 26088F   26259.13035224  .00005487  00000-0  34495-3 0  9997
2 68797  97.5188  46.6054 0016470 123.5219 236.7586 15.09526266 22017
MANGARO-II-Piscus
1 68798U 26088G   26258.65816668  .00002736  00000-0  17471-3 0  9992
2 68798  97.5201  46.1824 0020025 128.3570 231.9462 15.09332292 21943
CO-128
1 69912U 26156AV  26260.49207376  .00001165  00000-0  12356-3 0  9994
2 69912  97.7472 159.6544 0000938 260.5384  99.5729 14.90950397 10758
MARINA
1 69920U 26156BD  26260.50198815  .00001540  00000-0  15672-3 0  9993
2 69920  97.7442 159.7680 0005889 278.4251  81.6301 14.92172436 10768
IO-86
1 40931U          26199.45381863  .00000000  00000-0  77536-4 0    07
2 40931   6.0006 322.6653 0012733 338.8432 273.6875 14.79294310    03
LILIUM-4                
1 71922C 26067AC  26089.50133053 -.00014632  00000+0 -74472-3 0    04
2 71922  97.4497  49.1617 0004341   5.9603 355.7042 15.16896692    16
